Location: Berua Church
(35.0423°N, 88.5987°W)
Time: 06:35:38
(UTC+00:00)

Meteor 1-11 Rocket - Pass Details

Date: 08 December 2019
Orbit: 831 x 916 km, 81.2° (Epoch: 26 January)

Event Time Altitude Azimuth Distance (km) Brightness Sun altitude
Rises 23:11:16 0° 356° (N) 3,558 6.7 -6.1°
Reaches altitude 10° 23:13:48 10° 1° (N) 2,613 6.0 -6.6°
Maximum altitude 23:19:41 57° 79° (E) 1,066 3.9 -7.7°
Drops below altitude 10° 23:25:29 10° 158° (SSE) 2,578 6.2 -8.8°
Sets 23:27:57 0° 162° (SSE) 3,506 7.0 -9.3°
